Location: Brunembert
(50.7122°N, 1.8935°E)
Time: 04:53:46
(UTC+00:00)

Cosmos 44 - Pass Details

Date: 22 April 2021
Orbit: 571 x 791 km, 65.1° (Epoch: 06 May)

Event Time Altitude Azimuth Distance (km) Brightness Sun altitude
Rises 19:56:09 0° 227° (SW) 3,131 6.9 -8.9°
Reaches altitude 10° 19:58:28 10° 230° (SW) 2,244 6.1 -9.2°
Maximum altitude 20:03:38 70° 314° (NW) 818 3.9 -9.9°
Drops below altitude 10° 20:09:03 10° 38° (NE) 2,352 6.0 -10.6°
Sets 20:11:32 0° 41° (NE) 3,294 6.7 -10.9°
